#datint,netname,site,siteID,timestamp,IntT,BattV,AirT2,AirT,AirT_Avg,AirT_Max,AirT_Min,RH_Avg,RH_Max,RH_Min,EA_Avg,Td_Avg,Td_Max,Td_Min,WindS_Smp,WindS_Avg,WindD_Avg,WindD_SD,WindS_Max,ETo,ETr,SoilT4,SoilT8,SoilVWC8,SolarW_Avg,wetstate_Avg,wetT_Avg,Precip_accum,Precip_WPG,Precip_TB
15min,AgWx,beryljct,423,18AUG2019:00:00:00,64.3,12.97,64.9,64.0,62.9,64.0,61.9,27,33,24,0.496,28.6,32.6,26.6,4.801,5.3,180,6.7,6.6,0.00045,0.00064,71.1,70.7,10,0,.,.,16.42,0.00,0.00
15min,AgWx,beryljct,423,18AUG2019:00:15:00,63.8,12.97,67.0,66.1,66.0,66.7,64.2,22,24,20,0.501,26.0,27.6,24.4,5.064,5.0,180,6.8,6.2,0.00048,0.00071,70.8,70.6,10,0,.,.,16.43,0.01,0.00
15min,AgWx,beryljct,423,18AUG2019:00:30:00,64.3,12.95,69.6,68.8,67.8,68.8,66.1,21,23,21,0.502,26.8,27.5,26.4,6.292,6.1,178,6.6,8.8,0.00063,0.00090,70.5,70.6,10,0,.,.,16.43,0.00,0.00
15min,AgWx,beryljct,423,18AUG2019:00:45:00,64.5,12.94,66.1,64.4,65.2,69.3,62.9,28,33,20,0.585,30.8,33.9,26.9,5.415,5.6,159,10,6.9,0.00051,0.00073,70.3,70.6,10,0,.,.,16.42,0.00,0.00
15min,AgWx,beryljct,423,18AUG2019:01:00:00,64.3,12.94,69.6,68.3,66.9,68.4,64.5,25,28,23,0.543,29.6,30.7,28.5,4.384,5.0,170,6.3,6.8,0.00047,0.00070,70.0,70.5,10,0,.,.,16.43,0.01,0.00
15min,AgWx,beryljct,423,18AUG2019:01:15:00,64.6,12.92,68.0,68.5,68.7,70.0,67.4,23,25,21,0.552,29.3,30.5,28.5,4.889,5.3,172,11,7.4,0.00054,0.00079,69.7,70.5,10,0,.,.,16.43,0.00,0.00
15min,AgWx,beryljct,423,18AUG2019:01:30:00,65.2,12.93,68.2,68.6,69.1,69.7,68.4,23,24,22,0.578,29.9,30.6,29.1,6.029,6.2,174,11,8.5,0.00065,0.00092,69.4,70.4,10,0,.,.,16.43,0.00,0.00
15min,AgWx,beryljct,423,18AUG2019:01:45:00,65.7,12.92,67.7,68.5,68.8,69.3,68.3,23,24,23,0.572,29.9,30.7,29.2,5.853,6.3,171,7.3,8.7,0.00065,0.00092,69.2,70.4,10,0,.,.,16.43,0.00,0.00
15min,AgWx,beryljct,423,18AUG2019:02:00:00,65.9,12.91,68.9,69.0,68.4,69.3,67.4,24,26,22,0.539,30.3,31.7,28.7,7.87,6.2,173,9.1,8.7,0.00063,0.00090,69.0,70.3,10,0,.,.,16.43,0.00,0.00
15min,AgWx,beryljct,423,18AUG2019:02:15:00,66.0,12.91,67.4,68.0,68.3,69.0,67.8,23,24,22,0.552,29.1,29.5,28.6,5.108,6.2,178,6.1,8.7,0.00065,0.00092,68.8,70.2,11,0,.,.,16.43,0.00,0.00
15min,AgWx,beryljct,423,18AUG2019:02:30:00,65.6,12.9,66.9,67.4,66.5,67.9,65.7,25,26,24,0.557,29.7,30.1,29.3,1.776,4.9,188,5.3,6.3,0.00045,0.00067,68.5,70.2,10,0,.,.,16.43,0.00,0.00
15min,AgWx,beryljct,423,18AUG2019:02:45:00,64.3,12.9,56.9,59.0,61.2,67.3,58.0,35,41,24,0.658,33.3,35.8,29.7,1.995,3.4,39,64,6.4,0.00018,0.00029,68.3,70.1,10,0,.,.,16.43,0.00,0.00
15min,AgWx,beryljct,423,18AUG2019:03:00:00,62.4,12.88,59.7,59.1,58.6,59.8,57.6,39,42,36,0.652,34.0,35.1,32.7,0,1.1,23,48,4.3,-0.00019,-0.00026,68.1,70.0,10,0,.,.,16.43,0.00,0.00
15min,AgWx,beryljct,423,18AUG2019:03:15:00,60.4,12.88,60.1,57.4,59.0,61.0,57.1,39,45,34,0.702,34.1,36.1,32.6,0.373,0.4,254,0.5,1.9,-0.00033,-0.00049,67.9,69.9,10,0,.,.,16.43,0.00,0.00
15min,AgWx,beryljct,423,18AUG2019:03:30:00,58.9,12.86,51.7,53.0,55.7,58.5,53.0,46,52,40,0.711,35.3,36.1,34.1,1.666,0.6,255,0.0,1.7,-0.00027,-0.00040,67.7,69.9,10,0,.,.,16.44,0.00,0.00
15min,AgWx,beryljct,423,18AUG2019:03:45:00,57.4,12.87,56.0,55.0,54.7,57.2,52.6,48,53,42,0.708,35.1,36.2,34.4,0,0.8,255,0.2,2.7,-0.00023,-0.00033,67.5,69.8,11,0,.,.,16.43,0.00,0.00
15min,AgWx,beryljct,423,18AUG2019:04:00:00,56.2,12.87,51.6,51.6,53.0,55.8,51.1,53,60,45,0.778,36.2,38.1,34.5,0,0.4,257,2.6,2.0,-0.00030,-0.00046,67.3,69.8,11,0,.,.,16.44,0.00,0.00
15min,AgWx,beryljct,423,18AUG2019:04:15:00,54.9,12.87,51.4,50.4,50.5,52.4,48.3,56,66,44,0.619,35.2,38.1,29.7,1.929,1.9,311,0.6,3.3,-0.00011,-0.00012,67.0,69.6,10,0,.,.,16.44,0.01,0.00
15min,AgWx,beryljct,423,18AUG2019:04:30:00,53.7,12.86,53.9,53.4,52.1,54.7,50.4,47,53,41,0.632,32.5,34.0,30.6,2.28,2.3,300,5.4,3.0,-0.00004,-0.00001,66.8,69.6,10,0,.,.,16.44,0.00,0.00
15min,AgWx,beryljct,423,18AUG2019:04:45:00,53.1,12.86,56.1,54.7,53.5,54.7,51.9,46,51,43,0.629,33.4,34.6,32.1,1.798,1.3,270,46,2.8,-0.00016,-0.00020,66.6,69.5,10,0,.,.,16.44,0.00,0.00
15min,AgWx,beryljct,423,18AUG2019:05:00:00,52.9,12.84,51.0,53.0,54.5,57.0,52.8,44,49,38,0.665,33.1,34.3,31.5,0,0.5,208,4.2,2.7,-0.00028,-0.00042,66.4,69.4,10,0,.,.,16.44,0.00,0.00
15min,AgWx,beryljct,423,18AUG2019:05:15:00,52.6,12.84,53.0,53.3,52.5,54.0,51.4,49,53,42,0.620,33.7,34.9,31.4,0.482,0.3,210,0.1,2.1,-0.00031,-0.00048,66.2,69.3,11,0,.,.,16.45,0.00,0.00
15min,AgWx,beryljct,423,18AUG2019:05:30:00,52.2,12.82,51.9,54.0,54.2,55.8,52.2,43,49,39,0.651,32.3,33.7,31.5,0,0.2,212,1.0,2.2,-0.00035,-0.00054,65.9,69.2,11,0,.,.,16.44,0.00,0.00
15min,AgWx,beryljct,423,18AUG2019:05:45:00,52.0,12.83,58.3,55.8,54.6,55.9,52.5,44,51,39,0.623,32.9,35.0,31.4,0,0.1,215,0.0,1.4,-0.00037,-0.00058,65.8,69.2,10,0,.,.,16.45,0.00,0.00
15min,AgWx,beryljct,423,18AUG2019:06:00:00,51.7,12.82,51.8,53.1,54.4,56.5,52.8,45,49,40,0.641,33.5,34.9,32.4,1.381,0.3,215,0.0,2.2,-0.00034,-0.00052,65.5,69.0,10,0,.,.,16.45,0.00,0.00
15min,AgWx,beryljct,423,18AUG2019:06:15:00,51.5,12.83,49.2,50.5,52.8,54.1,50.5,47,52,44,0.641,33.1,34.8,31.2,2.236,1.1,302,49,4.1,0.00016,0.00027,65.3,69.0,11,0,.,.,16.45,0.00,0.00
15min,AgWx,beryljct,423,18AUG2019:06:30:00,51.1,12.82,50.3,50.7,50.3,51.4,49.2,52,57,45,0.657,33.2,34.6,30.3,0.877,1.1,336,0.0,2.3,0.00015,0.00026,65.1,68.9,10,0,.,.,16.45,0.00,0.00
15min,AgWx,beryljct,423,18AUG2019:06:45:00,50.5,12.82,47.6,48.5,50.3,51.7,48.5,54,57,50,0.645,34.4,35.2,33.3,3.749,1.2,352,22,4.4,0.00015,0.00026,64.9,68.8,10,1,.,.,16.45,0.00,0.00
15min,AgWx,beryljct,423,18AUG2019:07:00:00,49.9,12.82,50.0,48.4,48.5,50.2,46.7,52,60,44,0.631,31.4,34.0,28.5,0,0.9,27,4.8,3.8,0.00016,0.00025,64.7,68.7,10,7,.,.,16.45,0.00,0.00
15min,AgWx,beryljct,423,18AUG2019:07:15:00,49.5,12.84,49.0,47.1,48.2,49.3,47.1,58,64,52,0.707,34.0,35.7,32.2,0.57,0.2,7.2,0.0,1.2,0.00022,0.00024,64.5,68.6,10,33,.,.,16.45,0.00,0.00
15min,AgWx,beryljct,423,18AUG2019:07:30:00,49.5,12.86,52.4,50.8,49.1,50.8,47.3,54,64,47,0.625,33.3,35.6,30.8,0,0.5,7.2,0.0,1.5,0.00044,0.00051,64.4,68.5,10,70,.,.,16.45,0.00,0.00
15min,AgWx,beryljct,423,18AUG2019:07:45:00,50.6,12.84,57.7,56.1,52.8,56.1,51.0,50,58,40,0.614,34.4,39.1,31.9,1.162,0.7,7.5,0.0,2.2,0.00065,0.00076,64.2,68.4,10,111,.,.,16.45,0.00,0.00
15min,AgWx,beryljct,423,18AUG2019:08:00:00,53.0,12.85,59.9,59.0,57.0,59.0,55.5,48,58,38,0.715,37.3,41.1,31.4,2.653,2.5,8.0,0.7,3.4,0.00111,0.00142,64.0,68.3,10,156,.,.,16.44,0.00,0.00
15min,AgWx,beryljct,423,18AUG2019:08:15:00,56.1,12.87,59.3,59.8,60.0,60.7,59.0,43,56,37,0.979,37.2,44.0,34.0,0.745,2.0,11,0.5,3.0,0.00138,0.00169,63.8,68.2,10,204,.,.,16.44,0.00,0.00
15min,AgWx,beryljct,423,18AUG2019:08:30:00,59.0,12.92,60.1,59.8,59.6,59.9,59.4,57,63,51,0.953,44.3,46.9,41.8,0.46,0.9,11,0.0,1.4,0.00149,0.00168,63.6,68.1,10,255,.,.,16.44,0.00,0.00
15min,AgWx,beryljct,423,18AUG2019:08:45:00,61.6,13.02,61.6,61.6,60.8,61.7,59.9,45,53,39,0.829,39.4,42.6,35.9,0,0.3,11,0.0,0.9,0.00175,0.00190,63.5,68.0,10,306,.,.,16.44,0.00,0.00
15min,AgWx,beryljct,423,18AUG2019:09:00:00,64.0,13.22,63.0,62.9,62.1,62.9,61.6,45,49,40,0.903,40.4,42.9,37.8,0.066,0.1,11,0.0,0.7,0.00207,0.00223,63.4,68.0,10,358,.,.,16.43,0.00,0.00
15min,AgWx,beryljct,423,18AUG2019:09:15:00,66.2,13.47,65.5,65.4,64.1,65.4,62.9,48,54,42,0.909,43.8,46.7,40.7,0.11,0.7,23,11,1.6,0.00251,0.00276,63.4,67.8,10,411,.,.,16.43,0.00,0.00
15min,AgWx,beryljct,423,18AUG2019:09:30:00,68.6,13.77,68.7,68.5,67.0,68.5,65.4,42,50,35,0.947,42.9,47.2,39.4,0.855,0.9,34,0.0,1.5,0.00291,0.00321,63.4,67.8,10,461,.,.,16.43,0.00,0.00
15min,AgWx,beryljct,423,18AUG2019:09:45:00,71.4,14.12,70.4,70.5,69.5,70.5,68.5,38,45,33,0.928,43.0,47.1,39.5,0.965,1.1,34,0.0,2.1,0.00337,0.00374,63.4,67.7,10,517,.,.,16.42,0.00,0.00
15min,AgWx,beryljct,423,18AUG2019:10:00:00,74.2,14.07,73.2,72.7,71.5,72.7,70.5,34,47,29,0.844,41.7,50.1,37.5,1.096,0.6,34,0.0,1.4,0.00372,0.00406,63.5,67.6,10,570,.,.,16.42,0.00,0.00
15min,AgWx,beryljct,423,18AUG2019:10:15:00,77.0,14,74.7,75.0,73.7,75.0,72.8,35,44,30,0.992,44.0,51.3,39.4,1.162,1.1,34,0.1,2.1,0.00417,0.00461,63.6,67.5,10,619,.,.,16.41,0.00,0.00
15min,AgWx,beryljct,423,18AUG2019:10:30:00,79.6,13.98,76.3,77.1,76.0,77.1,75.0,34,41,22,0.844,45.6,51.0,35.0,2.148,2.0,48,27,4.6,0.00458,0.00519,63.8,67.4,10,648,.,.,16.41,0.00,0.00
15min,AgWx,beryljct,423,18AUG2019:10:45:00,81.2,13.89,77.6,77.4,77.2,77.7,76.8,32,42,23,1.106,44.6,52.1,37.1,4.954,4.4,97,6.9,7.1,0.00532,0.00635,64.1,67.3,10,706,.,.,16.41,0.00,0.00
15min,AgWx,beryljct,423,18AUG2019:11:00:00,82.1,13.96,79.3,80.0,78.7,80.9,77.5,29,37,17,0.987,43.2,49.3,32.6,7.322,6.6,143,21,11.9,0.00593,0.00736,64.4,67.3,10,744,.,.,16.41,0.00,0.00
15min,AgWx,beryljct,423,18AUG2019:11:15:00,83.2,13.89,82.9,83.6,82.2,84.6,79.3,18,29,13,0.529,34.0,44.6,28.5,9.08,8.9,190,20,13.0,0.00689,0.00896,64.8,67.2,10,781,.,.,16.41,0.00,0.00
15min,AgWx,beryljct,423,18AUG2019:11:30:00,84.1,13.87,78.9,80.8,80.9,84.1,79.6,23,32,14,0.935,39.5,47.2,28.6,5.393,8.0,162,20,11.8,0.00681,0.00862,65.2,67.2,10,818,.,.,16.40,0.00,0.00
15min,AgWx,beryljct,423,18AUG2019:11:45:00,84.1,13.88,78.6,79.3,80.0,80.7,79.3,26,32,21,1.029,41.9,46.9,36.4,8.51,9.2,156,12,13.2,0.00702,0.00894,65.6,67.2,10,851,.,.,16.40,0.00,0.00
15min,AgWx,beryljct,423,18AUG2019:12:00:00,83.8,13.49,83.2,82.5,79.8,82.7,78.9,27,34,13,0.738,42.3,48.5,27.0,12.87,9.5,158,16,14.0,0.00717,0.00910,66.1,67.1,10,877,.,.,16.41,0.00,0.00
15min,AgWx,beryljct,423,18AUG2019:12:15:00,84.4,13.45,80.0,80.7,82.0,83.9,80.1,21,30,14,0.795,37.8,47.0,29.2,5.612,8.9,161,16,14.7,0.00755,0.00961,66.6,67.1,10,900,.,.,16.40,0.00,0.00
15min,AgWx,beryljct,423,18AUG2019:12:30:00,84.7,13.46,81.6,83.0,82.2,85.2,80.3,20,26,12,0.784,36.3,43.1,27.0,7.76,10.2,170,16,15.3,0.00786,0.01015,67.1,67.1,10,921,.,.,16.40,0.00,0.00
15min,AgWx,beryljct,423,18AUG2019:12:45:00,85.6,13.45,79.4,81.3,84.1,85.4,81.3,16,25,11,0.921,32.0,42.4,24.2,14.73,11.2,175,17,16.7,0.00834,0.01093,67.7,67.1,10,941,.,.,16.40,0.00,0.00
15min,AgWx,beryljct,423,18AUG2019:13:00:00,85.8,13.46,80.7,80.9,82.0,85.2,79.8,21,30,11,0.935,36.8,45.4,24.6,9.43,12.5,159,23,20.6,0.00827,0.01087,68.2,67.1,10,954,.,.,16.40,0.00,0.00
15min,AgWx,beryljct,423,18AUG2019:13:15:00,85.9,13.45,87.2,86.5,83.0,86.5,80.9,19,26,12,0.512,35.5,42.6,27.1,14.25,12.2,173,20,17.9,0.00841,0.01104,68.8,67.2,10,961,.,.,16.40,0.00,0.00
15min,AgWx,beryljct,423,18AUG2019:13:30:00,86.8,13.43,86.3,87.1,86.4,87.3,84.3,12,19,11,0.483,27.7,37.3,24.7,13.77,12.0,198,16,18.6,0.00892,0.01184,69.3,67.2,10,972,.,.,16.40,0.00,0.00
15min,AgWx,beryljct,423,18AUG2019:13:45:00,87.3,13.5,84.2,84.7,85.1,87.1,83.3,14,19,10,0.594,30.9,37.2,24.7,13.26,10.6,177,22,17.4,0.00858,0.01115,69.9,67.3,10,975,.,.,16.40,0.00,0.00
15min,AgWx,beryljct,423,18AUG2019:14:00:00,87.9,13.39,87.8,86.2,86.0,87.4,84.1,13,20,11,0.504,29.1,38.6,24.6,8.59,10.0,186,15,16.2,0.00857,0.01111,70.4,67.3,10,972,.,.,16.40,0.00,0.00
15min,AgWx,beryljct,423,18AUG2019:14:15:00,88.2,13.4,81.9,82.3,84.6,86.6,82.3,17,23,12,0.779,34.7,41.1,27.2,8.4,11.6,165,16,18.6,0.00846,0.01111,71.0,67.4,10,952,.,.,16.40,0.00,0.00
15min,AgWx,beryljct,423,18AUG2019:14:30:00,88.1,13.39,86.1,87.7,85.3,88.0,82.0,16,27,11,0.643,33.2,44.7,26.8,10.94,9.9,180,29,20.3,0.00813,0.01054,71.5,67.5,10,927,.,.,16.40,0.00,0.00
15min,AgWx,beryljct,423,18AUG2019:14:45:00,88.5,13.44,82.4,83.3,84.5,88.7,82.2,18,24,11,0.877,36.3,42.7,26.3,7.848,10.8,163,18,18.4,0.00799,0.01047,72.1,67.6,10,898,.,.,16.40,0.00,0.00
15min,AgWx,beryljct,423,18AUG2019:15:00:00,88.7,13.36,88.0,88.7,86.8,89.2,82.7,13,26,9.6,0.501,29.2,44.2,24.1,5.13,11.6,198,28,23.7,0.00822,0.01101,72.6,67.8,10,877,.,.,16.40,0.00,0.00
15min,AgWx,beryljct,423,18AUG2019:15:15:00,89.4,13.31,81.5,82.7,86.0,89.0,82.7,17,31,9.6,1.008,34.2,49.5,24.0,10.17,8.7,164,26,15.2,0.00748,0.00965,73.0,67.9,10,854,.,.,16.40,0.00,0.00
15min,AgWx,beryljct,423,18AUG2019:15:30:00,89.2,13.38,90.0,88.6,85.2,89.3,82.0,17,28,8.2,0.395,32.9,46.3,20.6,17.14,9.1,181,34,17.1,0.00763,0.00986,73.4,68.0,10,875,.,.,16.40,0.01,0.00
15min,AgWx,beryljct,423,18AUG2019:15:45:00,90.0,13.3,85.3,84.0,87.2,89.9,83.6,12,22,8.4,0.783,27.7,41.1,20.5,13.37,11.9,185,24,18.4,0.00822,0.01111,73.9,68.1,10,857,.,.,16.40,0.00,0.00
15min,AgWx,beryljct,423,18AUG2019:16:00:00,90.1,13.33,83.0,83.5,86.7,88.8,83.5,11,19,7.7,0.743,25.2,36.9,18.3,9.36,15.1,180,16,21.0,0.00847,0.01188,74.3,68.3,10,821,.,.,16.40,0.00,0.00
15min,AgWx,beryljct,423,18AUG2019:16:15:00,90.4,13.3,87.7,88.4,87.8,89.5,83.4,10,20,7.4,0.374,23.6,37.6,18.4,16.55,11.9,201,20,17.8,0.00750,0.01039,74.7,68.5,10,742,.,.,16.40,0.00,0.00
15min,AgWx,beryljct,423,18AUG2019:16:30:00,90.7,13.39,88.6,88.8,87.3,88.9,84.9,9.4,15,7.5,0.391,22.4,32.7,18.1,14.36,13.2,201,27,21.6,0.00784,0.01097,75.0,68.6,10,762,.,.,16.40,0.00,0.00
15min,AgWx,beryljct,423,18AUG2019:16:45:00,90.9,13.29,88.9,89.4,88.7,89.6,88.1,8.5,8.9,7.8,0.415,21.2,22.9,19.3,17.52,16.3,221,10,23.7,0.00834,0.01206,75.4,68.8,10,735,.,.,16.40,0.00,0.00
15min,AgWx,beryljct,423,18AUG2019:17:00:00,91.1,13.3,88.1,88.4,88.4,89.4,87.8,8.8,9.3,8.2,0.396,22.0,23.5,20.4,17.19,15.7,214,16,22.7,0.00779,0.01137,75.8,68.9,10,671,.,.,16.40,0.00,0.00
15min,AgWx,beryljct,423,18AUG2019:17:15:00,91.3,13.3,87.2,88.2,88.5,89.5,88.0,9.0,9.9,8.5,0.415,22.6,24.7,21.1,18.7,15.9,206,14,24.0,0.00780,0.01140,76.1,69.1,10,664,.,.,16.40,0.00,0.00
15min,AgWx,beryljct,423,18AUG2019:17:30:00,90.5,13.31,85.8,85.9,86.9,88.1,85.9,9.7,10,9.1,0.423,23.1,24.3,21.9,14.47,15.8,207,8.9,24.4,0.00596,0.00936,76.3,69.3,10,399,.,.,16.41,0.01,0.00
15min,AgWx,beryljct,423,18AUG2019:17:45:00,89.7,13.34,86.1,86.4,86.9,88.0,85.9,10,11,9.5,0.465,24.3,27.4,22.6,14.1,13.4,208,12,20.4,0.00597,0.00898,76.4,69.4,10,477,.,.,16.40,0.00,0.00
15min,AgWx,beryljct,423,18AUG2019:18:00:00,88.9,13.35,85.9,85.7,86.3,86.9,85.6,11,12,10,0.481,25.6,26.7,24.3,10.41,12.9,213,13,17.8,0.00484,0.00767,76.5,69.6,10,333,.,.,16.40,0.00,0.00
15min,AgWx,beryljct,423,18AUG2019:18:15:00,88.4,13.35,85.6,86.0,86.3,87.0,85.7,12,13,11,0.538,27.3,28.9,24.9,10.76,12.6,221,14,17.0,0.00502,0.00779,76.6,69.8,10,369,.,.,16.40,0.00,0.00
15min,AgWx,beryljct,423,18AUG2019:18:30:00,88.0,13.36,85.9,86.4,85.9,86.4,85.4,12,13,12,0.534,28.3,29.6,26.8,15.32,12.7,227,12,17.9,0.00478,0.00752,76.7,69.9,10,340,.,.,16.40,0.00,0.00
15min,AgWx,beryljct,423,18AUG2019:18:45:00,87.6,13.39,85.2,85.4,85.6,86.4,84.9,13,13,12,0.540,28.5,29.8,27.6,17.47,14.5,224,11,19.7,0.00462,0.00759,76.6,70.1,10,260,.,.,16.40,0.00,0.00
15min,AgWx,beryljct,423,18AUG2019:19:00:00,86.8,13.3,84.3,84.2,84.7,85.4,84.2,14,14,13,0.562,29.6,30.9,28.4,15.61,11.8,221,8.7,17.6,0.00346,0.00593,76.6,70.2,10,178,.,.,16.41,0.00,0.00
15min,AgWx,beryljct,423,18AUG2019:19:15:00,85.6,13.25,83.9,84.0,83.7,84.2,83.3,14,15,14,0.563,30.2,31.1,29.4,15.78,12.4,221,9.0,19.1,0.00331,0.00581,76.5,70.4,10,144,.,.,16.41,0.00,0.00
15min,AgWx,beryljct,423,18AUG2019:19:30:00,84.7,13.18,82.8,83.3,83.4,84.0,83.0,15,16,14,0.604,30.7,31.7,29.9,8.46,10.4,218,11,15.7,0.00181,0.00239,76.4,70.5,10,112,.,.,16.41,0.00,0.00
15min,AgWx,beryljct,423,18AUG2019:19:45:00,84.0,13.16,81.5,82.1,82.7,83.3,82.1,16,17,15,0.641,32.3,33.4,31.2,7.914,9.6,226,8.0,15.2,0.00171,0.00228,76.2,70.6,10,127,.,.,16.41,0.00,0.00
15min,AgWx,beryljct,423,18AUG2019:20:00:00,83.3,13.15,81.2,81.5,81.9,82.5,81.4,17,18,16,0.658,33.3,33.9,32.4,10.02,9.7,223,8.2,13.7,0.00162,0.00216,76.1,70.7,10,102,.,.,16.41,0.00,0.00
15min,AgWx,beryljct,423,18AUG2019:20:15:00,82.3,13.13,79.4,80.1,80.8,81.5,80.1,18,19,18,0.642,33.7,34.3,33.1,8.66,9.6,228,8.5,12.0,0.00142,0.00191,75.9,70.8,10,46,.,.,16.41,0.00,0.00
15min,AgWx,beryljct,423,18AUG2019:20:30:00,80.9,13.09,78.4,78.2,79.3,80.2,78.1,19,20,18,0.656,33.5,34.1,32.8,7.278,8.1,215,7.6,12.4,0.00112,0.00156,75.7,70.9,10,11,.,.,16.41,0.01,0.00
15min,AgWx,beryljct,423,18AUG2019:20:45:00,79.2,13.08,76.2,76.9,77.7,78.2,76.9,20,20,19,0.633,33.4,34.1,32.9,4.384,6.3,215,6.6,8.7,0.00083,0.00120,75.5,71.0,10,3,.,.,16.41,0.00,0.00
15min,AgWx,beryljct,423,18AUG2019:21:00:00,77.2,13.07,76.7,76.4,75.8,77.0,74.9,21,22,20,0.607,33.1,33.8,31.8,4.034,3.9,190,17,5.2,0.00040,0.00065,75.3,71.1,10,0,.,.,16.42,0.00,0.00
15min,AgWx,beryljct,423,18AUG2019:21:15:00,75.1,13.07,72.8,73.8,73.5,76.7,70.7,23,27,20,0.634,33.2,35.8,31.8,2.631,2.9,177,5.2,4.2,0.00020,0.00037,75.1,71.1,10,0,.,.,16.42,0.00,0.00
15min,AgWx,beryljct,423,18AUG2019:21:30:00,73.1,13.06,72.0,71.9,71.9,73.7,71.1,25,27,23,0.652,33.9,35.7,33.0,4.012,3.1,169,5.3,4.9,0.00022,0.00039,74.9,71.2,10,0,.,.,16.42,0.00,0.00
15min,AgWx,beryljct,423,18AUG2019:21:45:00,71.5,13.05,67.7,68.0,71.3,73.3,68.0,25,27,21,0.586,33.2,35.5,30.0,3.683,4.1,177,16,5.7,0.00039,0.00061,74.6,71.2,10,0,.,.,16.42,0.00,0.00
15min,AgWx,beryljct,423,18AUG2019:22:00:00,69.7,13.04,66.5,66.0,66.1,68.0,65.2,28,30,25,0.608,31.8,32.7,30.0,3.179,3.2,202,0.4,3.7,0.00019,0.00033,74.3,71.3,10,0,.,.,16.42,0.00,0.00
15min,AgWx,beryljct,423,18AUG2019:22:15:00,68.1,13.03,67.9,67.9,66.7,70.3,62.6,28,43,23,0.594,32.6,39.9,29.4,4.845,4.1,148,28,5.4,0.00032,0.00051,74.0,71.3,10,0,.,.,16.42,0.00,0.00
15min,AgWx,beryljct,423,18AUG2019:22:30:00,66.6,13.03,61.5,64.0,65.5,68.0,61.8,30,37,25,0.625,32.8,37.4,30.2,4.56,4.5,173,22,6.3,0.00036,0.00055,73.7,71.3,10,0,.,.,16.43,0.00,0.00
15min,AgWx,beryljct,423,18AUG2019:22:45:00,65.2,13.02,66.9,63.2,64.1,67.4,62.0,27,32,23,0.549,29.7,32.2,27.8,2.718,3.3,203,3.6,4.7,0.00021,0.00035,73.4,71.3,10,0,.,.,16.43,0.00,0.00
15min,AgWx,beryljct,423,18AUG2019:23:00:00,64.3,13.02,67.7,65.8,65.1,67.4,62.1,26,34,22,0.510,29.1,33.4,27.0,3.003,2.6,205,3.7,3.9,0.00010,0.00020,73.1,71.3,10,0,.,.,16.43,0.00,0.00
15min,AgWx,beryljct,423,18AUG2019:23:15:00,63.6,13.01,64.7,66.0,64.3,66.6,62.1,26,29,23,0.509,28.8,30.1,27.3,3.003,3.4,196,5.3,4.5,0.00022,0.00036,72.8,71.3,10,0,.,.,16.43,0.00,0.00
15min,AgWx,beryljct,423,18AUG2019:23:30:00,63.2,13,66.7,66.6,65.6,67.7,64.0,24,26,22,0.482,27.4,28.3,26.2,4.209,3.6,187,0.9,4.2,0.00026,0.00043,72.5,71.3,10,0,.,.,16.43,0.00,0.00
15min,AgWx,beryljct,423,18AUG2019:23:45:00,63.3,13,67.0,64.4,66.5,69.2,62.7,23,28,20,0.499,27.0,29.0,25.5,3.157,3.5,189,6.8,4.1,0.00027,0.00044,72.2,71.3,10,0,.,.,16.43,0.00,0.00
15min,AgWx,beryljct,423,19AUG2019:00:00:00,63.3,12.98,68.3,68.8,68.1,69.4,64.6,20,24,18,0.471,26.0,29.0,24.6,5.459,3.5,181,4.4,5.5,0.00028,0.00046,71.9,71.3,11,0,.,.,16.43,0.00,0.00
15min,AgWx,beryljct,423,19AUG2019:00:15:00,63.3,12.97,62.5,62.5,65.5,68.7,61.6,22,28,20,0.487,26.1,28.0,24.6,4.406,4.3,186,6.2,5.8,0.00038,0.00059,71.6,71.2,10,0,.,.,16.43,0.00,0.00
15min,AgWx,beryljct,423,19AUG2019:00:30:00,62.9,12.97,69.1,67.4,64.7,68.0,61.9,23,27,19,0.443,25.6,27.7,23.9,3.99,4.1,188,10,5.3,0.00034,0.00053,71.3,71.2,10,0,.,.,16.43,0.00,0.00
15min,AgWx,beryljct,423,19AUG2019:00:45:00,62.5,12.96,64.9,64.6,65.0,68.3,61.4,23,31,19,0.451,26.3,30.7,24.0,3.683,3.6,174,3.1,4.4,0.00027,0.00044,71.0,71.2,10,0,.,.,16.43,0.00,0.00
15min,AgWx,bigpiney,439,18AUG2019:00:00:00,49.9,12.76,40.1,43.6,46.6,47.7,43.6,42,47,40,0.450,24.5,24.7,24.2,1.841,1.8,329,80,4.7,0.00001,0.00004,52.7,51.1,43,0,0,0.0,4.17,0.00,0.00
15min,AgWx,bigpiney,439,18AUG2019:00:15:00,48.5,12.76,42.5,43.1,42.4,45.4,40.0,51,56,44,0.470,25.4,26.0,24.4,3.639,4.4,217,17,6.9,0.00015,0.00021,52.6,51.1,43,0,0,0.0,4.17,0.00,0.00
15min,AgWx,bigpiney,439,18AUG2019:00:30:00,47.2,12.75,44.4,43.3,43.1,46.8,40.6,51,57,43,0.459,26.0,26.9,25.0,5.261,4.1,252,29,7.0,0.00013,0.00020,52.6,51.1,43,0,0,0.0,4.17,0.00,0.00
15min,AgWx,bigpiney,439,18AUG2019:00:45:00,46.2,12.73,43.2,41.2,41.2,43.3,38.9,53,59,47,0.462,25.2,25.9,24.5,3.332,2.7,25,73,6.5,0.00004,0.00008,52.5,51.1,43,0,0,0.0,4.17,0.00,0.00
15min,AgWx,bigpiney,439,18AUG2019:01:00:00,45.3,12.72,42.8,40.9,41.3,42.5,38.2,52,59,49,0.465,24.9,26.3,24.1,3.442,2.4,299,70,7.1,0.00002,0.00006,52.5,51.1,43,0,0,0.0,4.17,0.00,0.00
15min,AgWx,bigpiney,439,18AUG2019:01:15:00,44.3,12.72,39.4,38.4,39.8,43.4,37.9,56,61,49,0.472,25.5,26.0,24.7,3.31,4.1,258,20,7.5,0.00010,0.00015,52.4,51.1,44,0,0,0.0,4.17,0.00,0.00
15min,AgWx,bigpiney,439,18AUG2019:01:30:00,43.4,12.71,38.1,38.0,37.6,38.5,36.5,63,67,59,0.480,26.2,27.0,25.1,4.231,4.1,241,8.2,5.7,0.00006,0.00010,52.4,51.1,44,0,0,0.0,4.17,0.00,0.00
15min,AgWx,bigpiney,439,18AUG2019:01:45:00,42.6,12.7,38.9,39.9,38.1,41.8,36.4,63,68,52,0.477,26.6,27.5,25.4,3.858,4.0,248,16,5.5,0.00006,0.00010,52.3,51.1,44,0,0,0.0,4.17,0.00,0.00
15min,AgWx,bigpiney,439,18AUG2019:02:00:00,41.9,12.7,36.7,40.4,40.7,44.8,37.8,54,62,42,0.466,25.2,26.3,23.3,3.727,3.5,239,14,5.2,0.00009,0.00013,52.2,51.1,44,0,0,0.0,4.17,0.00,0.00
15min,AgWx,bigpiney,439,18AUG2019:02:15:00,41.3,12.68,37.6,42.6,40.5,45.4,37.1,54,63,42,0.460,25.1,26.8,23.6,2.565,2.3,235,33,4.5,0.00001,0.00004,52.2,51.1,44,0,0,0.0,4.17,0.00,0.00
15min,AgWx,bigpiney,439,18AUG2019:02:30:00,40.9,12.67,38.9,40.5,40.8,42.8,36.8,54,64,49,0.463,25.2,26.5,24.4,3.946,2.9,207,36,4.8,0.00005,0.00009,52.1,51.1,44,0,0,0.0,4.17,0.00,0.00
15min,AgWx,bigpiney,439,18AUG2019:02:45:00,40.6,12.66,42.8,41.7,38.7,41.7,36.2,57,63,49,0.440,24.5,25.5,23.5,3.223,2.2,263,74,4.5,-0.00000,0.00002,52.0,51.2,44,0,0,0.0,4.17,0.00,0.00
15min,AgWx,bigpiney,439,18AUG2019:03:00:00,40.4,12.65,40.3,39.7,40.1,41.8,38.8,56,60,49,0.496,25.5,26.9,24.0,3.793,2.7,227,18,4.6,0.00004,0.00007,52.0,51.1,44,0,0,0.0,4.17,0.00,0.00
15min,AgWx,bigpiney,439,18AUG2019:03:15:00,40.1,12.64,35.3,35.8,36.6,39.7,35.4,67,70,59,0.491,26.5,27.1,25.6,5.853,4.4,215,6.7,6.2,0.00006,0.00009,51.9,51.1,44,0,0,0.0,4.17,0.00,0.00
15min,AgWx,bigpiney,439,18AUG2019:03:30:00,39.6,12.63,36.6,38.1,37.0,41.3,34.8,66,72,54,0.476,26.5,27.4,25.4,4.187,4.2,216,16,6.3,0.00006,0.00009,51.8,51.1,44,0,0,0.0,4.17,0.00,0.00
15min,AgWx,bigpiney,439,18AUG2019:03:45:00,39.1,12.62,37.1,37.1,36.6,38.0,34.8,63,69,58,0.441,25.2,26.6,24.0,1.118,2.3,17,58,5.8,-0.00001,0.00000,51.8,51.0,44,0,0,0.0,4.17,0.00,0.00
15min,AgWx,bigpiney,439,18AUG2019:04:00:00,38.7,12.61,39.1,38.1,37.0,38.1,36.5,61,63,58,0.453,24.7,25.3,24.0,3.529,1.7,323,18,5.3,-0.00005,-0.00005,51.6,51.1,44,0,0,0.0,4.17,0.00,0.00
15min,AgWx,bigpiney,439,18AUG2019:04:15:00,38.4,12.59,40.0,39.4,37.8,39.4,35.6,57,62,52,0.429,23.9,24.7,22.6,2.916,3.4,317,37,6.2,0.00006,0.00010,51.6,51.1,44,0,0,0.0,4.17,0.00,0.00
15min,AgWx,bigpiney,439,18AUG2019:04:30:00,38.2,12.59,32.8,34.3,38.2,40.6,34.3,55,64,51,0.426,23.6,24.2,23.1,2.806,3.3,284,40,5.9,0.00006,0.00010,51.5,51.0,44,0,0,0.0,4.17,0.00,0.00
15min,AgWx,bigpiney,439,18AUG2019:04:45:00,37.8,12.57,32.8,35.6,33.6,36.5,31.3,68,74,61,0.429,24.1,25.5,22.4,2.631,1.9,174,58,5.0,-0.00005,-0.00005,51.4,51.1,44,0,0,0.0,4.17,0.00,0.00
15min,AgWx,bigpiney,439,18AUG2019:05:00:00,37.1,12.56,43.2,40.2,34.0,40.2,31.7,67,73,52,0.442,24.1,25.3,22.6,3.091,3.1,249,40,7.2,0.00001,0.00003,51.3,51.0,44,0,0,0.0,4.17,0.00,0.00
15min,AgWx,bigpiney,439,18AUG2019:05:15:00,36.7,12.54,35.1,36.4,38.5,41.9,35.1,55,63,47,0.422,23.5,24.8,22.8,6.182,3.5,242,46,7.7,0.00007,0.00012,51.3,51.0,44,0,0,0.0,4.17,0.00,0.00
15min,AgWx,bigpiney,439,18AUG2019:05:30:00,36.4,12.53,43.0,41.9,38.2,42.0,35.0,57,64,48,0.430,24.0,25.0,23.2,3.135,2.3,236,18,5.7,0.00001,0.00003,51.2,51.0,44,0,0,0.0,4.17,0.00,0.00
15min,AgWx,bigpiney,439,18AUG2019:05:45:00,36.3,12.52,34.9,36.3,38.5,42.0,34.9,55,64,47,0.433,23.6,24.9,22.3,0.965,1.9,243,23,8.9,-0.00001,-0.00000,51.1,51.0,44,0,0,0.0,4.17,0.00,0.00
15min,AgWx,bigpiney,439,18AUG2019:06:00:00,36.2,12.5,40.6,39.8,36.8,39.8,35.3,57,61,49,0.405,22.9,24.2,22.0,0,1.4,287,25,3.9,-0.00005,-0.00006,51.0,50.9,44,0,0,0.0,4.17,0.00,0.00
15min,AgWx,bigpiney,439,18AUG2019:06:15:00,36.0,12.49,35.7,35.5,37.7,40.4,33.6,54,66,47,0.416,22.6,27.3,21.8,0,1.2,232,52,3.7,-0.00007,-0.00008,51.0,50.9,44,0,0,0.0,4.17,0.00,0.00
15min,AgWx,bigpiney,439,18AUG2019:06:30:00,35.8,12.48,33.5,32.0,34.1,37.3,31.4,65,73,58,0.444,23.6,24.4,21.4,3.201,2.7,219,31,5.0,0.00000,0.00002,50.9,50.9,44,2,0,0.0,4.17,0.00,0.00
15min,AgWx,bigpiney,439,18AUG2019:06:45:00,35.3,12.49,31.8,31.0,31.9,35.7,29.9,71,77,61,0.445,23.4,25.2,22.1,3.486,4.0,216,25,5.6,-0.00016,-0.00005,50.8,50.9,44,12,0,0.0,4.17,0.00,0.00
15min,AgWx,bigpiney,439,18AUG2019:07:00:00,35.0,12.52,34.6,33.4,32.2,34.0,31.1,72,76,68,0.447,24.3,25.3,23.8,0.548,2.7,245,53,5.4,-0.00011,-0.00004,50.7,50.9,44,44,0,0.0,4.17,0.00,0.00